User: anonymous   Login
Location: Robert Brownlee Observatory
(34.2308°N, 117.2089°W)
Time: 13:35:31
(UTC-08:00)
Language:

Cosmos 1943 - Orbit

View from above orbital plane
View from above orbital plane
View from above satellite
View from above satellite

Ground track
Ground track

The orbit data is extracted from the following two-line orbital elements,

1 19119U 88039A   14332.19704427 -.00000122  00000-0 -38656-4 0  3012
2 19119 071.0051 258.8064 0010701 022.2806 078.2390 14.14974305370253
Epoch (UTC): 28 November 2014 04:43:44
Eccentricity: 0.0010701
inclination: 71.0051°
perigee height: 834 km
apogee height: 850 km
right ascension of ascending node: 258.8064°
argument of perigee: 22.2806°
revolutions per day: 14.14974305
mean anomaly at epoch: 78.2390°
orbit number at epoch: 37025

The dashed part of the orbit path shows where the satellite is in the earth's shadow,  

DLR